Meteo pe oră la Bolshie Ivanischi

Astăzi, 19 Mai, Miercuri

Timp Temperatura Precipitaţii Vânt Presiune Umiditate
00:00 +19°C° 0 mm 5 m/s 745 mmHg 69%
01:00 +19°C° 0 mm 4 m/s 745 mmHg 72%
02:00 +18°C° 0 mm 4 m/s 744 mmHg 75%
03:00 +17°C° 0 mm 4 m/s 744 mmHg 77%
04:00 +18°C° 0 mm 4 m/s 744 mmHg 76%
05:00 +17°C° 0 mm 5 m/s 744 mmHg 75%
06:00 +17°C° 0 mm 5 m/s 744 mmHg 74%
07:00 +19°C° 0 mm 5 m/s 744 mmHg 71%
08:00 +21°C° 0 mm 6 m/s 745 mmHg 68%
09:00 +22°C° 0 mm 6 m/s 745 mmHg 64%
10:00 +23°C° 0 mm 6 m/s 745 mmHg 61%
11:00 +24°C° 0 mm 6 m/s 745 mmHg 57%
12:00 +26°C° 0 mm 6 m/s 745 mmHg 54%
13:00 +26°C° 0 mm 6 m/s 745 mmHg 53%
14:00 +27°C° 0 mm 5 m/s 745 mmHg 53%
15:00 +27°C° 0 mm 5 m/s 745 mmHg 53%
16:00 +27°C° 0 mm 5 m/s 744 mmHg 56%
17:00 +26°C° 0 mm 4 m/s 744 mmHg 59%
18:00 +26°C° 0 mm 4 m/s 744 mmHg 62%
19:00 +24°C° 0.4 mm 3 m/s 744 mmHg 70%
20:00 +20°C° 0.4 mm 3 m/s 744 mmHg 79%
21:00 +18°C° 0.4 mm 2 m/s 744 mmHg 87%
22:00 +18°C° 0.5 mm 2 m/s 744 mmHg 89%
23:00 +17°C° 0.5 mm 2 m/s 744 mmHg 92%

Mâine, 20 Mai, Joi

Timp Temperatura Precipitaţii Vânt Presiune Umiditate
00:00 +16°C° 0.5 mm 2 m/s 744 mmHg 94%
01:00 +16°C° 0.3 mm 2 m/s 744 mmHg 94%
02:00 +16°C° 0.3 mm 2 m/s 744 mmHg 95%
03:00 +16°C° 0.3 mm 3 m/s 743 mmHg 96%
04:00 +17°C° 1.2 mm 3 m/s 743 mmHg 95%
05:00 +17°C° 1.2 mm 3 m/s 743 mmHg 95%
06:00 +17°C° 1.2 mm 3 m/s 743 mmHg 94%
07:00 +18°C° 0 mm 4 m/s 743 mmHg 91%
08:00 +19°C° 0 mm 4 m/s 743 mmHg 87%
09:00 +20°C° 0 mm 5 m/s 743 mmHg 84%
10:00 +20°C° 0.1 mm 6 m/s 743 mmHg 76%
11:00 +21°C° 0.1 mm 6 m/s 743 mmHg 69%
12:00 +21°C° 0.1 mm 7 m/s 743 mmHg 62%
13:00 +21°C° 0.1 mm 6 m/s 743 mmHg 61%
14:00 +21°C° 0.1 mm 6 m/s 743 mmHg 60%
15:00 +21°C° 0.1 mm 6 m/s 743 mmHg 60%
16:00 +20°C° 0.2 mm 6 m/s 742 mmHg 64%
17:00 +19°C° 0.2 mm 6 m/s 742 mmHg 69%
18:00 +17°C° 0.2 mm 6 m/s 742 mmHg 73%
19:00 +16°C° 0.1 mm 5 m/s 742 mmHg 76%
20:00 +15°C° 0.1 mm 5 m/s 742 mmHg 79%
21:00 +14°C° 0.1 mm 5 m/s 743 mmHg 81%
22:00 +13°C° 0 mm 5 m/s 743 mmHg 82%
23:00 +13°C° 0 mm 5 m/s 743 mmHg 83%

Poimâine, 21 Mai, Vineri

Timp Temperatura Precipitaţii Vânt Presiune Umiditate
00:00 +13°C° 0 mm 4 m/s 743 mmHg 84%
01:00 +12°C° 0 mm 4 m/s 743 mmHg 85%
02:00 +12°C° 0 mm 4 m/s 743 mmHg 86%
03:00 +12°C° 0 mm 3 m/s 743 mmHg 86%
04:00 +12°C° 0.1 mm 3 m/s 744 mmHg 87%
05:00 +12°C° 0.1 mm 3 m/s 744 mmHg 87%
06:00 +13°C° 0.1 mm 2 m/s 744 mmHg 88%
07:00 +12°C° 0.3 mm 3 m/s 745 mmHg 89%
08:00 +12°C° 0.3 mm 3 m/s 745 mmHg 91%
09:00 +12°C° 0.3 mm 3 m/s 746 mmHg 92%
10:00 +11°C° 0.3 mm 3 m/s 746 mmHg 92%
11:00 +11°C° 0.3 mm 3 m/s 746 mmHg 92%
12:00 +11°C° 0.3 mm 3 m/s 747 mmHg 91%
13:00 +12°C° 0.1 mm 3 m/s 747 mmHg 87%
14:00 +13°C° 0.1 mm 3 m/s 747 mmHg 82%
15:00 +14°C° 0.1 mm 3 m/s 748 mmHg 77%
16:00 +16°C° 0 mm 2 m/s 748 mmHg 71%
17:00 +17°C° 0 mm 2 m/s 748 mmHg 65%
18:00 +19°C° 0 mm 1 m/s 748 mmHg 59%
19:00 +16°C° 0 mm 1 m/s 748 mmHg 65%
20:00 +15°C° 0 mm 2 m/s 749 mmHg 70%
21:00 +14°C° 0 mm 2 m/s 749 mmHg 75%
22:00 +13°C° 0 mm 2 m/s 749 mmHg 77%
23:00 +12°C° 0 mm 2 m/s 749 mmHg 78%

22 Mai, Sâmbătă

Timp Temperatura Precipitaţii Vânt Presiune Umiditate
00:00 +11°C° 0 mm 1 m/s 750 mmHg 80%
01:00 +11°C° 0 mm 1 m/s 750 mmHg 79%
02:00 +10°C° 0 mm 1 m/s 750 mmHg 77%
03:00 +10°C° 0 mm 1 m/s 751 mmHg 76%
04:00 +11°C° 0 mm 1 m/s 751 mmHg 76%
05:00 +11°C° 0 mm 1 m/s 751 mmHg 75%
06:00 +12°C° 0 mm 1 m/s 752 mmHg 75%
07:00 +13°C° 0 mm 1 m/s 752 mmHg 68%
08:00 +14°C° 0 mm 0 m/s 752 mmHg 61%
09:00 +16°C° 0 mm 0 m/s 752 mmHg 55%
10:00 +18°C° 0 mm 1 m/s 752 mmHg 51%
11:00 +19°C° 0 mm 1 m/s 752 mmHg 48%
12:00 +20°C° 0 mm 1 m/s 752 mmHg 44%
13:00 +20°C° 0 mm 2 m/s 752 mmHg 43%
14:00 +20°C° 0 mm 2 m/s 752 mmHg 41%
15:00 +21°C° 0 mm 2 m/s 752 mmHg 40%
16:00 +21°C° 0 mm 2 m/s 752 mmHg 44%
17:00 +21°C° 0 mm 2 m/s 752 mmHg 48%
18:00 +21°C° 0 mm 1 m/s 752 mmHg 52%
19:00 +19°C° 0 mm 2 m/s 752 mmHg 58%
20:00 +17°C° 0 mm 2 m/s 752 mmHg 64%
21:00 +16°C° 0 mm 2 m/s 752 mmHg 69%
22:00 +14°C° 0 mm 2 m/s 752 mmHg 74%
23:00 +13°C° 0 mm 2 m/s 752 mmHg 80%

23 Mai, Duminică

Timp Temperatura Precipitaţii Vânt Presiune Umiditate
00:00 +12°C° 0 mm 2 m/s 752 mmHg 85%
01:00 +10°C° 0 mm 2 m/s 752 mmHg 87%
02:00 +10°C° 0 mm 2 m/s 752 mmHg 89%
03:00 +10°C° 0 mm 2 m/s 752 mmHg 91%
04:00 +10°C° 0 mm 2 m/s 752 mmHg 89%
05:00 +12°C° 0 mm 2 m/s 751 mmHg 87%
06:00 +12°C° 0 mm 2 m/s 751 mmHg 85%
07:00 +13°C° 0 mm 3 m/s 750 mmHg 81%
08:00 +15°C° 0 mm 4 m/s 750 mmHg 76%
09:00 +16°C° 0 mm 5 m/s 749 mmHg 72%
10:00 +17°C° 0 mm 5 m/s 749 mmHg 74%
11:00 +17°C° 0 mm 5 m/s 748 mmHg 77%
12:00 +17°C° 0 mm 5 m/s 748 mmHg 80%
13:00 +18°C° 0 mm 4 m/s 747 mmHg 82%
14:00 +18°C° 0 mm 4 m/s 747 mmHg 83%
15:00 +18°C° 0 mm 4 m/s 746 mmHg 85%
16:00 +17°C° 0.1 mm 4 m/s 746 mmHg 88%
17:00 +17°C° 0.1 mm 4 m/s 745 mmHg 90%
18:00 +17°C° 0.1 mm 3 m/s 745 mmHg 92%
19:00 +17°C° 0.1 mm 3 m/s 745 mmHg 93%
20:00 +17°C° 0.1 mm 3 m/s 744 mmHg 93%
21:00 +17°C° 0.1 mm 3 m/s 744 mmHg 94%
22:00 +16°C° 0 mm 3 m/s 744 mmHg 94%
23:00 +16°C° 0 mm 3 m/s 744 mmHg 94%

24 Mai, Luni

Timp Temperatura Precipitaţii Vânt Presiune Umiditate
00:00 +14°C° 0 mm 3 m/s 744 mmHg 95%
01:00 +14°C° 0 mm 3 m/s 744 mmHg 95%
02:00 +14°C° 0 mm 3 m/s 744 mmHg 96%
03:00 +13°C° 0 mm 3 m/s 744 mmHg 96%
04:00 +13°C° 0 mm 3 m/s 744 mmHg 95%
05:00 +13°C° 0 mm 3 m/s 745 mmHg 94%
06:00 +13°C° 0 mm 3 m/s 745 mmHg 93%
07:00 +13°C° 0 mm 3 m/s 745 mmHg 86%
08:00 +14°C° 0 mm 3 m/s 746 mmHg 79%
09:00 +16°C° 0 mm 3 m/s 746 mmHg 72%
10:00 +16°C° 0 mm 2 m/s 746 mmHg 69%
11:00 +17°C° 0 mm 2 m/s 746 mmHg 66%
12:00 +17°C° 0 mm 2 m/s 746 mmHg 62%
13:00 +16°C° 0.3 mm 2 m/s 746 mmHg 70%
14:00 +15°C° 0.3 mm 2 m/s 747 mmHg 78%
15:00 +15°C° 0.3 mm 2 m/s 747 mmHg 87%
16:00 +14°C° 0.4 mm 2 m/s 747 mmHg 88%
17:00 +14°C° 0.4 mm 2 m/s 748 mmHg 90%
18:00 +14°C° 0.4 mm 2 m/s 748 mmHg 91%
19:00 +13°C° 0.1 mm 2 m/s 748 mmHg 92%
20:00 +13°C° 0.1 mm 1 m/s 748 mmHg 93%
21:00 +12°C° 0.1 mm 1 m/s 748 mmHg 93%
22:00 +12°C° 0 mm 1 m/s 748 mmHg 93%
23:00 +10°C° 0 mm 2 m/s 748 mmHg 94%
Arată mai mult

Formular de consimțământ

Meteoprog și furnizorii noștri de servicii pot stoca și accesa date personale, precum cookies, identificatori de dispozitiv sau alte tehnologii similare pe dispozitivul dumneavoastră și procesa astfel de date pentru a personaliza conținutul și reclamele, dar și pentru a oferi caracteristici de social media și pentru a analiza traficul.

  • Stocarea și/sau accesarea informațiilor pe dispozitivul dumneavoastră

    Cookies, identificatori de dispozitiv sau alte informații pot fi stocate sau accesate pe dispozitiv în scopurile indicate mai sus.

  • Reclame și conținut personalizat, evaluarea reclamelor și a conținutului, informații despre audiențe și dezvoltarea produselor

    Reclamele și conținutul pot fi personalizate pe baza unui profil. Pot fi adăugate date suplimentare pentru a personaliza mai bine reclamele și conținutul. Performanța reclamelor și conținutului poate fi măsurată. Pot fi obținute informații despre utilizatorii care au văzut reclamele și conținutul. Aceste date pot fi utilizate pentru a dezvolta sau îmbunătăți experiența utilizatorilor, sistemele și software-ul.

Dând clic pe ‘Sunt de acord’, permiteți utilizarea cookie-urilor menționate, a identificatorilor de dispozitiv, balizelor web sau altor tehnologii similare. Setările pot fi modificate din browser-ul dispozitivului dumneavoastră.

În anumite scopuri, interesele legitime pot prima asupra consimțământului. Puteți citi mai multe informații în acest sens în Politica privind Confidențialitatea Datelor și Cookie.